www.pogodaiklimat.ru

Погода и климат >> Архив погоды >> Австралия >> Западная Австралия >> Леинстер


ПОГОДА в Леинстере

  • Прогноз погоды в Леинстере
  • Монитор погоды в Леинстере

АРХИВ ПОГОДЫ в Леинстере

Время (UTC), дата Ветер
(напр.,м/с)
 
Видим.   Явления Облачность Т
(С)
Тd
(С)
f
(%)
Тe
(С)
Тes
(С)
Комфортность P
(гПа)
Po
(гПа)
Тmin
(С)
Tmax
(С)
R
(мм)
R24
(мм)
S
(см)
07 17.04 СВ 3 н/о н/о +26.1 +10.3 37 +27 +27 жарко 1016.4 960.0
09 17.04 В 2 н/о н/о +24.8 +9.1 37 +25 +25 комфорт 1016.5 960.1
10 17.04 ЮВ 2 н/о н/о +23.6 +11.3 46 +25 +25 комфорт 1016.7 960.3
12 17.04 ЮВ 3 н/о н/о +21.0 +11.1 53 +24 +24 комфорт 1017.5 961.0
13 17.04 штиль 0 н/о н/о +19.2 +12.7 66 +20 +20 1018.2 961.7 +26.3
15 17.04 В 2 н/о н/о +18.5 +12.3 67 +20 +20 1017.3 960.8
16 17.04 В 2 н/о н/о +17.8 +12.3 70 +18 +18 1016.9 960.5
18 17.04 В 3 н/о н/о +16.1 +13.0 82 +16 +16 1015.9 959.5
19 17.04 В 3 н/о н/о +15.8 +13.3 85 +15 +15 1015.4 959.0
21 17.04 В 4 н/о н/о +16.2 +13.3 83 +16 +16 1015.5 959.1
22 17.04 В 4 н/о 9/0
[]
+16.1 +13.4 84 +15 +15 1015.9 959.5
00 18.04 В 4 н/о н/о +17.8 +13.3 75 +18 +18 1016.5 960.1
01 18.04 СВ 5 н/о 3/0
[]
+20.6 +13.6 64 +23 +26 комфорт 1016.3 959.9 +15.8
03 18.04 СВ 5 н/о н/о +23.0 +12.9 53 +26 +26 жарко 1015.3 958.9
04 18.04 СВ 5 н/о 9/0
[]
+24.8 +13.0 48 +27 +31 жарко 1013.8 957.5
06 18.04 С 5 н/о н/о +27.2 +13.5 43 +29 +29 жарко 1012.2 956.0
07 18.04 С 5 н/о 6/0
[]
+27.7 +13.3 41 +29 +32 жарко 1011.7 955.5
09 18.04 СВ 3 н/о н/о +26.1 +14.2 48 +28 +28 жарко 1010.5 954.4
10 18.04 СВ 3 н/о 5/0
[]
+24.8 +15.1 55 +28 +28 жарко 1011.0 954.9
12 18.04 СВ 3 н/о н/о +23.0 +15.8 64 +27 +27 душно 1011.1 955.0
13 18.04 СВ 3 н/о 10/0
[]
+22.8 +16.1 66 +27 +27 душно 1011.1 955.0 +28.0
15 18.04 С 5 н/о н/о +22.8 +16.1 66 +27 +27 душно 1010.2 954.1
16 18.04 С 6 н/о 10/0
[]
+22.7 +16.3 67 +27 +27 душно 1009.2 953.2
18 18.04 С 6 н/о н/о +22.8 +15.9 65 +27 +27 душно 1008.7 952.7
19 18.04 СЗ 4 н/о 10/0
[]
+21.8 +16.1 70 +26 +26 душно 1008.6 952.6
21 18.04 З 7 н/о н/о +19.2 +12.0 63 +20 +20 1009.9 953.8
22 18.04 З 7 н/о 10/0
[]
+17.5 +12.4 72 +17 +17 1010.8 954.7
00 19.04 З 7 н/о н/о +18.2 +12.2 68 +18 +18 1012.7 956.5
01 19.04 З 8 н/о н/о +18.7 +11.3 62 +19 +19 1013.5 957.2 +16.7
03 19.04 З 8 н/о н/о +20.7 +9.9 50 +22 +22 комфорт 1012.8 956.6
04 19.04 З 7 н/о 1/1 1000 м
[]
+21.7 +9.9 47 +23 +26 комфорт 1012.5 956.3
06 19.04 З 7 н/о н/о +22.4 +9.9 45 +24 +24 комфорт 1012.1 955.9
07 19.04 З 8 н/о 1/1 1000 м
[]
+21.1 +8.4 44 +22 +23 комфорт 1012.3 956.1
09 19.04 ЮЗ 6 н/о н/о +19.6 +7.0 44 +20 +20 1012.7 956.5
10 19.04 ЮЗ 6 н/о н/о +18.0 +5.9 45 +17 +17 1013.6 957.3
12 19.04 ЮЗ 5 н/о н/о +16.2 +4.6 46 +15 +15 1015.8 959.4
13 19.04 ЮЗ 5 н/о н/о +15.4 +4.5 48 +14 +14 1016.5 960.1 +23.5
15 19.04 Ю 4 н/о н/о +13.8 +4.1 52 +12 +12 1016.9 960.5
16 19.04 Ю 5 н/о н/о +12.9 +4.3 56 +11 +11 1016.7 960.3
18 19.04 Ю 6 н/о н/о +11.5 +3.8 59 +9 +9 1017.9 961.4
19 19.04 Ю 5 н/о н/о +10.8 +2.9 58 +8 +8 1018.2 961.7
21 19.04 Ю 5 н/о н/о +9.2 +3.0 65 +6 +6 1019.6 963.0
22 19.04 Ю 3 н/о н/о +8.6 +3.2 69 +6 +6 1019.8 963.2
00 20.04 Ю 5 н/о н/о +10.2 +2.8 60 +7 +7 1021.5 964.8
01 20.04 Ю 5 н/о н/о +12.1 +2.6 52 +10 +10 1022.0 965.3 +8.1
03 20.04 Ю 7 н/о н/о +14.5 -0.4 36 +13 +13 1021.3 964.6
04 20.04 ЮЗ 7 н/о н/о +15.5 -1.5 31 +14 +14 1020.3 963.7
06 20.04 ЮЗ 6 н/о н/о +16.9 -3.2 25 +16 +16 1019.1 962.5
07 20.04 ЮЗ 5 н/о н/о +16.6 -2.5 27 +16 +16 1019.2 962.6
09 20.04 Ю 6 н/о н/о +16.5 -4.1 24 +16 +16 1019.2 962.6
10 20.04 Ю 6 н/о н/о +15.5 -5.0 24 +14 +14 1020.1 963.5
12 20.04 Ю 4 н/о н/о +13.1 -3.2 32 +12 +12 1021.7 965.0
13 20.04 Ю 4 н/о н/о +12.2 -2.0 37 +11 +11 1022.0 965.3 +17.4
15 20.04 Ю 4 н/о н/о +10.7 -1.7 42 +9 +9 1022.1 965.4
16 20.04 Ю 4 н/о н/о +9.8 -1.3 46 +8 +8 1022.1 965.4
18 20.04 ЮВ 3 н/о н/о +8.6 -1.2 50 +7 +7 1022.3 965.6
19 20.04 В 3 н/о н/о +8.1 -0.9 53 +6 +6 1022.2 965.5
21 20.04 ЮВ 3 н/о н/о +7.5 -0.9 55 +5 +5 1022.7 965.9
22 20.04 ЮВ 3 н/о н/о +6.7 -0.5 60 +4 +4 1023.1 966.3
00 21.04 В 5 н/о н/о +10.8 -0.6 45 +9 +9 1024.7 967.8
01 21.04 В 6 н/о н/о +13.4 -0.3 39 +11 +11 1024.6 967.7 +6.4
03 21.04 В 6 н/о н/о +15.9 +0.5 35 +15 +15 1024.0 967.2
04 21.04 В 6 н/о н/о +16.3 -0.4 32 +15 +15 1023.0 966.2
06 21.04 В 5 н/о н/о +18.6 -0.2 28 +18 +18 1021.6 964.9
07 21.04 В 5 н/о н/о +18.7 -0.7 27 +18 +18 1021.1 964.4
09 21.04 В 5 н/о н/о +18.2 -0.1 29 +18 +18 1021.0 964.3
10 21.04 В 3 н/о н/о +16.7 +0.4 33 +17 +17 1021.5 964.8
12 21.04 В 2 н/о н/о +14.0 +1.3 42 +14 +14 1022.2 965.5
13 21.04 В 3 н/о н/о +13.5 +1.5 44 +13 +13 1022.3 965.6 +19.7
15 21.04 В 3 н/о н/о +12.1 +2.0 50 +11 +11 1021.9 965.2
16 21.04 В 3 н/о н/о +10.7 +2.8 58 +9 +9 1021.8 965.1
18 21.04 В 2 н/о н/о +9.3 +3.1 65 +8 +8 1021.3 964.6
19 21.04 В 2 н/о н/о +8.7 +3.3 69 +7 +7 1021.2 964.5
21 21.04 ЮВ 2 н/о н/о +7.8 +3.8 76 +6 +6 1021.8 965.1
22 21.04 В 3 н/о н/о +7.6 +3.6 76 +5 +5 1021.7 965.0
00 22.04 В 4 н/о н/о +12.8 +4.3 56 +11 +11 1022.7 965.9
01 22.04 В 7 н/о н/о +15.4 +2.9 43 +14 +14 1022.9 966.1 +7.3
03 22.04 В 5 н/о н/о +18.3 +3.4 37 +18 +18 1021.8 965.1
04 22.04 ЮВ 5 н/о н/о +19.5 +3.2 34 +20 +20 1020.8 964.1
06 22.04 В 5 н/о н/о +22.1 +2.8 28 +22 +22 комфорт 1019.1 962.5
07 22.04 В 5 н/о н/о +21.7 +1.9 27 +21 +21 комфорт 1018.9 962.3
09 22.04 В 5 н/о н/о +21.3 +2.1 28 +21 +21 комфорт 1019.2 962.6
10 22.04 В 3 н/о н/о +19.6 +2.0 31 +20 +20 1019.7 963.1
12 22.04 В 3 н/о н/о +16.6 +3.0 40 +17 +17 1021.0 964.3
13 22.04 В 3 н/о н/о +16.0 +3.4 43 +16 +16 1021.1 964.4 +22.7
15 22.04 ЮВ 2 н/о н/о +13.5 +4.4 54 +13 +13 1021.7 965.0
16 22.04 В 2 н/о н/о +12.7 +4.2 56 +12 +12 1021.2 964.5
18 22.04 В 3 н/о н/о +11.8 +4.5 61 +11 +11 1020.7 964.0
19 22.04 В 3 н/о н/о +10.4 +4.3 66 +9 +9 1020.2 963.6
21 22.04 В 2 н/о н/о +10.0 +4.4 68 +9 +9 1020.7 964.0
22 22.04 ЮВ 2 н/о н/о +9.0 +4.6 74 +7 +7 1021.2 964.5
00 23.04 В 3 н/о н/о +14.4 +5.0 53 +14 +14 1022.2 965.5
01 23.04 В 6 н/о н/о +18.1 +3.9 39 +18 +18 1022.1 965.4 +9.1
03 23.04 В 4 н/о н/о +21.9 +4.5 32 +22 +22 комфорт 1021.3 964.6
04 23.04 ЮВ 4 н/о н/о +22.8 +3.4 28 +23 +23 комфорт 1020.7 964.0
06 23.04 ЮВ 6 н/о н/о +24.7 +3.4 25 +24 +24 комфорт 1019.2 962.6
07 23.04 ЮВ 5 н/о н/о +24.5 +1.4 22 +23 +23 комфорт 1019.1 962.5
09 23.04 ЮВ 5 н/о н/о +24.1 +2.3 24 +23 +23 комфорт 1019.7 963.1
10 23.04 ЮВ 3 н/о н/о +22.1 +2.2 27 +22 +22 комфорт 1020.4 963.8
12 23.04 В 3 н/о н/о +18.9 +2.7 34 +19 +19 1021.6 964.9
13 23.04 ЮВ 3 н/о н/о +17.7 +3.2 38 +18 +18 1022.1 965.4 +25.4
15 23.04 В 2 н/о н/о +15.2 +4.0 47 +15 +15 1021.9 965.2
16 23.04 В 2 н/о н/о +13.8 +4.1 52 +13 +13 1021.8 965.1
18 23.04 В 2 н/о н/о +12.9 +4.1 55 +12 +12 1021.6 964.9
19 23.04 В 2 н/о н/о +12.1 +4.6 60 +11 +11 1021.5 964.8
21 23.04 В 2 н/о н/о +11.1 +4.6 64 +10 +10 1022.3 965.6
22 23.04 ЮВ 3 н/о н/о +10.8 +4.9 67 +9 +9 1023.0 966.2
00 24.04 ЮВ 3 н/о н/о +15.2 +5.4 52 +15 +15 1023.9 967.1
01 24.04 ЮВ 5 н/о н/о +19.0 +4.0 37 +19 +19 1024.1 967.3 +10.7
03 24.04 В 4 н/о н/о +23.3 +4.3 29 +23 +23 комфорт 1023.5 966.7
04 24.04 В 5 н/о н/о +23.9 +3.2 26 +23 +23 комфорт 1022.6 965.8
06 24.04 В 5 н/о н/о +24.9 +1.7 22 +24 +24 комфорт 1020.9 964.2
07 24.04 В 5 н/о н/о +25.6 +1.7 21 +24 +24 комфорт 1020.7 964.0

 

Местоположение метеостанции Леинстер (Западная Австралия, Австралия): широта -27.85 долгота 120.70 высота над уровнем моря 498 м.

В архиве по умолчанию представлена погода в Леинстере за последнюю неделю. Архивные данные за месяц целиком и за предыдущие месяцы, начиная с января 2011 года, Вы можете получить, выбрав интересующий диапазон дат из раскрывающегося списка и нажав кнопку "Ввод!".


*Определитесь, кто Вы:
робот инопланетянин человек

Внимание! Время в таблицах - всемирное. Для получения местного времени необходимо прибавить поправку, которая равна 8 ч.

Смотрите также архив погоды в соседних городах и на ближайших метеорологических станциях:

Погода в Леонора аэропорту (Западная Австралия, Австралия) (130 км)
Погода в Лавертоне (Западная Австралия, Австралия) (188 км)
Погода в Микатарре (Западная Австралия, Австралия) (253 км)
Погода в Маунт Магнет аэропорту (Западная Австралия, Австралия) (283 км)
Погода в Калгурли-Боулдере (Западная Австралия, Австралия) (334 км)
Погода в Саутерн Кросс (Западная Австралия, Австралия) (398 км)
Погода в Дауоллину (Западная Австралия, Австралия) (476 км)
Погода в Мораве (Западная Австралия, Австралия) (481 км)
Погода в Норсмане (Западная Австралия, Австралия) (496 км)
Погода в Ньюмане (Западная Австралия, Австралия) (502 км)

Пояснения к столбцам:

Ветер - указаны скорость ветра в м/с - средняя за 10 мин, порывы в срок и между сроками (в фигурных скобках) и направление, откуда дует ветер: С - северный, СВ - северо-восточный, В - восточный, ЮВ - юго-восточный, Ю - южный, ЮЗ - юго-западный, З - западный, СЗ - северо-западный.
Видимость - горизонтальная дальность видимости в метрах или километрах. При видимости от 1 до 10 км при отсутствии осадков обычно наблюдается дымка, при ухудшении видимости до 1 км и менее - туман. В сухую погоду видимость может ухудшаться дымом, пылью или мглою.
Явления - указаны атмосферные явления, наблюдавшиеся в срок или в последний час перед сроком; фигурными скобками обозначены явления, наблюдавшиеся между сроками (за 1-3 часа до срока); квадратными скобками обозначены град или гололедные отложения с указанием их диаметра в мм.
Облачность - указаны через наклонную черту общая и нижняя облачность в баллах и высота нижней границы облаков в метрах; квадратными скобками обозначены формы облаков: Ci - перистые, Cs - перисто-слоистые, Cc - перисто-кучевые, Ac - высококучевые, As - высокослоистые, Sc - слоисто-кучевые, Ns - слоисто-дождевые, Cu - кучевые, Cb - кучево-дождевые. Подробнее классификацию облаков см. в Атласе облаков (PDF).
T - Температура воздуха - температура, измеренная на высоте 2 м над землей.
Td - Температура точки росы - температура, при понижении до которой содержащийся в воздухе водяной пар достигнет насыщения.
f - Относительная влажность воздуха - влажноcть воздуха, измеренная на высоте 2 м над землей.
Te - Эффективная температура - температура, которую ощущает одетый по сезону человек в тени. Характеристика душности погоды. При расчете учитывается влияние влажности воздуха и скорости ветра на теплоощущения человека.
Tes - Эффективная температура на солнце - температура, которую ощущает человек, с поправкой на солнечный нагрев. Характеристика знойности погоды. Зависит от высоты солнца над горизонтом, облачности и скорости ветра. Ночью, в пасмурную погоду, а также при ветре 12 м/с и более поправка равна нулю.
P - Атмосферное давление - приведенное к уровню моря атмосферное давление.
Po - Атмосферное давление - измеренное на уровне метеостанции атмосферное давление.
Tmin - Минимальная температура - минимум температуры воздуха на высоте 2 м над землей.
Tmax - Максимальная температура - максимум температуры воздуха на высоте 2 м над землей.
R - Количество осадков - Количество выпавших осадков за период времени, мм. При наведении курсора мыши на число - период времени, за который выпало указанное количество осадков.
R24 - Количество осадков - Количество выпавших осадков за 24 часа, мм.
S - Снежный покров - Высота снежного покрова, см. При наведении курсора мыши на число - состояние снежного покрова и степень покрытия местности в баллах.